アトラス彗星

C/2020 M5 ( ATLAS )

English version
Home page
Updated on September 11, 2022

---------------------------------------------------------------------

・ プロフィール

発見日 2020年6月30日
発見光度 19.4等
発見者 Asteroid Terrestrial-Impact Last Alert System (ATLAS) search program

・ 写真集

・ 軌道要素

Epoch 2022 Aug. 9.0 TT = JDT 2459800.5
T 2021 Aug. 19.86932 TT                                 Rudenko
q   3.0039635            (2000.0)            P               Q
z  -0.0001248      Peri.  126.32802     -0.59301054     -0.79339619
 +/-0.0000002      Node   352.09372     -0.28638239     +0.36723362
e   1.0003749      Incl.   93.22507     +0.75254477     -0.48545027
From 1601 observations 2019 Aug. 10-2022 June 21, mean residual 0".5.

・ 星図

・ 光度変化

        m1 = 5.0 + 5 logΔ + 15.0 log r(t - 70)

---------------------------------------------------------------------

軌道要素はM.P.E.C. 2022-R139に掲載されたものです。
星図はステラナビゲータ Ver.10 (アストロアーツ) で作成したものです。
光度グラフはComet for Windowsで作成したものです。

---------------------------------------------------------------------

Copyright(C) Seiichi Yoshida (comet@aerith.net). All rights reserved.